Regional Weather Roundup
Issued by NWS

Home | Current Version | Previous Version | Text Only | Print | Product List | Glossary On
Versions: 1 2 3 4 5 6 7 8 9 10 11 12 13 14 15 16 17 18 19 20 21 22 23 24 25 26 27 28 29 30 31 32 33 34 35 36 37 38 39 40 41 42 43 44 45 46 47 48 49 50
000
ASHW40 PHFO 052110
RWRHI

WEATHER ROUNDUP FOR HAWAII
NATIONAL WEATHER SERVICE HONOLULU HI
1100 AM HST THU MAR 05 2015

THIS IS AN AUTOMATED REPORT THAT HAS NOT BEEN QUALITY CONTROLLED.

NOTE..."FAIR" INDICATES FEW OR NO CLOUDS BELOW 12,000 FEET WITH NO
SIGNIFICANT WEATHER AND/OR OBSTRUCTIONS TO VISIBILITY.

* - THESE SITES REPORT LIMITED FIELDS

HIZ001>004-052200-
KAUAI-NIIHAU-

CITY           SKY/WX    TMP DP  RH WIND       PRES   REMARKS
LIHUE APT      PTSUNNY   74  60  61 NE22      30.05F
PORT ALLEN*      N/A     75 N/A N/A W6          N/A
POIPU*           N/A     75 N/A N/A N10G21      N/A
PRINCEVILLE*     N/A     70 N/A N/A MISG        N/A
KOKOLE POINT*  NOT AVBL
MOLOAA DAIRY*  NOT AVBL
WAIMEA HTS*    NOT AVBL
PUU OPAE*      NOT AVBL
PUU LUA*       NOT AVBL
MAKAHA RIDGE*  NOT AVBL
$$

HIZ005>011-052200-
OAHU-

CITY           SKY/WX    TMP DP  RH WIND       PRES   REMARKS
HONOLULU       FAIR      73  61  65 N15G22    30.00S
KALAELOA       FAIR      73  61  65 N8G24     30.00F
KANEOHE MCB    PTSUNNY   76  64  66 N18       30.00F
WHEELER FIELD  FAIR      69  62  78 N15       30.01F
BELLOWS*       NOT AVBL
KAHUKU*        NOT AVBL
WHEELER*       NOT AVBL
WAIANAE HARBOR NOT AVBL
DILLINGHAM*      N/A     70  64  83 MISG        N/A
KAHUKU TRN*      N/A     64  55  72 NE8G17      N/A
KAWAILOA*        N/A     66  63  88 NE10G20     N/A
KII*             N/A     72  64  78 NE15G22     N/A
MAKUA RANGE*     N/A     72  61  68 E17G26      N/A
OAHU FOREST NW NOT AVBL
SCHOFIELD BRK*   N/A     63  55  77 MISG        N/A
SCHOFIELD S*   NOT AVBL
WAIANAE VLY*   NOT AVBL
KUAOKALA*      NOT AVBL
HONOULIUULI*   NOT AVBL
MOKUOLOE IS*   NOT AVBL
PALEHUA*       NOT AVBL
WAIAWA PHB*    NOT AVBL
$$

HIZ012>013-052200-
MOLOKAI-

CITY           SKY/WX    TMP DP  RH WIND       PRES   REMARKS
MOLOKAI AIRPT  LGT RAIN  67  66  97 N10G17    30.02S
KALAUPAPA      NOT AVBL
MAKAPULAPAI*   NOT AVBL
MOLOKAI 1*     NOT AVBL
PUU ALII*      NOT AVBL
$$

HIZ016-052200-
KAHOOLAWE-

CITY           SKY/WX    TMP DP  RH WIND       PRES   REMARKS
KAHOOLAWE*     NOT AVBL
HAKIOAWA*      NOT AVBL
HONOKANAIA*      N/A     78  64  62 VRB14G25  29.99
KANELOA*         N/A     73  64  73 MISG      29.21S
KEALIALALO*    NOT AVBL
LUA MAKIKA*    NOT AVBL
$$

HIZ014>015-052200-
LANAI-

CITY           SKY/WX    TMP DP  RH WIND       PRES   REMARKS
LANAI CITY     PTSUNNY   73  63  71 NE25      30.02F
LANAI 1*       NOT AVBL
$$

HIZ017>028-052200-
MAUI-

CITY           SKY/WX    TMP DP  RH WIND       PRES   REMARKS
KAHULUI        PTSUNNY   73  64  73 N18       30.01F
KAPALUA-W MAUI PTSUNNY   70  64  83 N18       30.01
HANA AIRPORT   MOSUNNY   72  68  88 VRB10     30.03S
HANA*          NOT AVBL
HALEAKALA SUMM   N/A     43  39  87 NE8         N/A
MAALAEA BAY*   NOT AVBL
HALEAKALA*     NOT AVBL
KAUPO GAP*     NOT AVBL
KULA 1*          N/A     53  51  93 SW1         N/A
$$

HIZ023>026-052200-
BIG ISLAND OF HAWAII COAST AND LOWER SLOPES-

CITY           SKY/WX    TMP DP  RH WIND       PRES   REMARKS
KAILUA KONA    FAIR      77  65  66 S10       29.94F
HILO           PTSUNNY   74  64  71 NW7       29.98F
HONOKAA*       NOT AVBL
KAWAIHAE MWT*  NOT AVBL
KAWAIHAE*        N/A     75 N/A N/A SW7         N/A
SOUTH POINT*   NOT AVBL
UPOLU AIRPORT* NOT AVBL
KAMUELA*       CLEAR     68  57  68 N23       30.03S
HAKALAU*         N/A     53  49  87 NE6         N/A
KALOKO-HONOKO* NOT AVBL
PALI 2*          N/A     66  59  77 SE3G12      N/A
KEALAKOMO*       N/A     77  59  53 N15G23      N/A
KAUPULEHU*     NOT AVBL
KAPAPALA*        N/A     73  60  63 CALM        N/A
LOWER KAHUKU*  NOT AVBL
PUHE CS*       NOT AVBL
PUHO CS*       NOT AVBL
PTA KEAMUKU*     N/A     66  57  72 CALM        N/A
WAIKOLOA*      NOT AVBL
$$

HIZ027>028-052200-
BIG ISLAND OF HAWAII INTERIOR AND SUMMMITS-

CITY           SKY/WX    TMP DP  RH WIND       PRES   REMARKS
BRADSHAW FIELD FAIR      58  50  74 S5        30.21F
MK VISITOR CEN NOT AVBL
MAUNA KEA*       N/A     28  28 100 NW49        N/A  WCI   9
MAUNA LOA*       N/A     45  34  65 MISG        N/A
MAUNA LOA 1*   NOT AVBL
PTA KIPUKA*      N/A     63  52  67 NW5G10      N/A
PTA RANGE 17*    N/A     59  52  77 W7          N/A
PTA WEST*        N/A     63  55  77 W8          N/A
NENE CABIN*    NOT AVBL
AHUMOA*        NOT AVBL
PTA PORTABLE*  NOT AVBL
PUU MALI*      NOT AVBL
$$

HIC003-052200-
NORTHWEST ISLANDS-

CITY           SKY/WX    TMP DP  RH WIND       PRES   REMARKS
MIDWAY ISLAND  CLOUDY    61  54  77 E21G33    30.42S
MIDWAY NOS*    NOT AVBL
FRENCH FRIGATE NOT AVBL
$$

PHZ110>124-180-052200-
BUOY REPORTS

STATION/POSITION TIME  TEMP    WIND        PRES    WAVE   SWELL
                       AIR SEA DIR/SP/G            HT/PER HT/DIR
                 (UTC) (F)     (DEG/KT/KT) (MB)    (FT/S) (FT/D)
BUOY 51001       NOT AVBL
BUOY 51101       2100   67 72   30/ 17/ 21 1020.7R  10/ 8   7/340
BUOY 51100       2100   70 75   30/ 16/ 19 1015.6F
BUOY 51003       2000   75 78   60/ 17/ 21 1015.1R   9/ 8   5
BUOY 51004       2040   76 78   40/ 14/ 16 1012.5F   7/ 9   7/ 90
BARBERS PT BUOY  NOT AVBL
WAIMEA BAY BUOY  2100      77                N/A     9/ 9   5/340
KAILUA BAY BUOY  2100      76                N/A     8/ 9   2/ 20
LANAI BUOY       2100      76                N/A     3/14   2/260
BARBERS PT 2     2100      77                N/A     4/13   3/280
PAUWELA MAUI     2100      75                N/A     9/ 9   3/ 30
HILO             2100      77                N/A     7/ 8   2/ 70
KANEOHE BAY BUOY 2100      76                N/A     8/ 9   2
HANALEI KAUAI    NOT AVBL
KAHULUI HARBOR   2100   70 75   10/ 15/ 18 1015.8F
HONOLULU HARBOR  2100   74 76   70/ 11/ 20 1015.4F
KILO NALU        NOT AVBL
HILO HARBOR      2100   71 76  350/  6/  8 1015.0F
MOKUOLOE         2100   72 75   10/ 16/ 19 1016.8F
NAWILIWILI       2100   72 78   20/ 17/ 20 1017.0F
WHOTS BUOY       NOT AVBL
BUOY 51028       NOT AVBL
$$

......................KEY........................................
  SKY/WX - SKY CONDITIONS/PRESENT WEATHER
  TMP    - TEMPERATURE IN FAHRENHEIT
  DWPT   - DEWPOINT IN FAHRENHEIT
  RH     - RELATIVE HUMIDITY IN PERCENT
  WIND   - DIRECTION AND SPEED /MPH FOR ISLANDS...KTS FOR BUOYS/
  PRES   - MEAN SEA LEVEL PRESSURE IN INCHES OF HG
  VSB    - VISIBILITY IN MILES
  HX     - HEAT INDEX
  WCI    - WIND CHILL INDEX
  VRB    - VARIABLE WIND DIRECTION
  N/A    - NOT AVAILABLE


USA.gov is the U.S. government's official web portal to all federal, state and local government web resources and services.